• în România
  • Lista ţărilor
  • Pe 7 zile
  • Temperatura apei
  • Hartă satelitară
  • Meteo pe hartă
  • Widget-uri
  • user-avatar
    Intrare

    Meteo pe oră la Pontypridd

    Astăzi, 18 August, Sâmbătă

    Timp Temperatura Precipitaţii Vânt Presiune Umiditate
    00:00 +15°C° 0 mm 5 m/s 755 mmHg 92%
    01:00 +15°C° 0 mm 5 m/s 755 mmHg 92%
    02:00 +15°C° 0 mm 5 m/s 755 mmHg 92%
    03:00 +15°C° 0 mm 5 m/s 755 mmHg 92%
    04:00 +15°C° 0,1 mm 5 m/s 755 mmHg 92%
    05:00 +16°C° 0,1 mm 5 m/s 755 mmHg 92%
    06:00 +16°C° 0,1 mm 5 m/s 755 mmHg 92%
    07:00 +16°C° 0 mm 5 m/s 755 mmHg 89%
    08:00 +17°C° 0 mm 5 m/s 755 mmHg 86%
    09:00 +17°C° 0 mm 5 m/s 755 mmHg 83%
    10:00 +19°C° 0 mm 5 m/s 755 mmHg 82%
    11:00 +20°C° 0 mm 6 m/s 755 mmHg 80%
    12:00 +20°C° 0 mm 6 m/s 755 mmHg 78%
    13:00 +20°C° 0 mm 6 m/s 755 mmHg 80%
    14:00 +20°C° 0 mm 6 m/s 755 mmHg 83%
    15:00 +20°C° 0 mm 6 m/s 755 mmHg 85%
    16:00 +20°C° 0 mm 6 m/s 755 mmHg 87%
    17:00 +19°C° 0 mm 5 m/s 755 mmHg 88%
    18:00 +19°C° 0 mm 5 m/s 755 mmHg 89%
    19:00 +19°C° 0 mm 5 m/s 755 mmHg 91%
    20:00 +18°C° 0 mm 4 m/s 755 mmHg 93%
    21:00 +18°C° 0 mm 4 m/s 755 mmHg 95%
    22:00 +18°C° 0 mm 4 m/s 755 mmHg 95%
    23:00 +16°C° 0 mm 5 m/s 755 mmHg 95%

    Mâine, 19 August, Duminică

    Timp Temperatura Precipitaţii Vânt Presiune Umiditate
    00:00 +16°C° 0 mm 5 m/s 755 mmHg 95%
    01:00 +16°C° 0 mm 5 m/s 754 mmHg 95%
    02:00 +15°C° 0 mm 5 m/s 754 mmHg 94%
    03:00 +15°C° 0 mm 6 m/s 754 mmHg 93%
    04:00 +15°C° 0 mm 6 m/s 753 mmHg 92%
    05:00 +16°C° 0 mm 7 m/s 753 mmHg 91%
    06:00 +16°C° 0 mm 7 m/s 753 mmHg 91%
    07:00 +17°C° 0,1 mm 7 m/s 753 mmHg 90%
    08:00 +17°C° 0,1 mm 7 m/s 753 mmHg 90%
    09:00 +17°C° 0,1 mm 7 m/s 753 mmHg 90%
    10:00 +18°C° 0 mm 7 m/s 753 mmHg 89%
    11:00 +19°C° 0 mm 6 m/s 753 mmHg 88%
    12:00 +20°C° 0 mm 6 m/s 753 mmHg 86%
    13:00 +20°C° 0 mm 6 m/s 753 mmHg 86%
    14:00 +20°C° 0 mm 6 m/s 754 mmHg 86%
    15:00 +20°C° 0 mm 5 m/s 754 mmHg 85%
    16:00 +20°C° 0 mm 5 m/s 754 mmHg 85%
    17:00 +20°C° 0 mm 5 m/s 754 mmHg 85%
    18:00 +20°C° 0 mm 5 m/s 754 mmHg 85%
    19:00 +19°C° 0 mm 4 m/s 755 mmHg 89%
    20:00 +18°C° 0 mm 3 m/s 755 mmHg 92%
    21:00 +17°C° 0 mm 3 m/s 755 mmHg 96%
    22:00 +17°C° 0 mm 3 m/s 755 mmHg 95%
    23:00 +16°C° 0 mm 2 m/s 755 mmHg 95%

    Poimâine, 20 August, Luni

    Timp Temperatura Precipitaţii Vânt Presiune Umiditate
    00:00 +16°C° 0 mm 2 m/s 755 mmHg 95%
    01:00 +16°C° 0 mm 2 m/s 755 mmHg 95%
    02:00 +16°C° 0 mm 2 m/s 755 mmHg 95%
    03:00 +16°C° 0 mm 2 m/s 755 mmHg 95%
    04:00 +16°C° 0 mm 2 m/s 755 mmHg 96%
    05:00 +16°C° 0 mm 2 m/s 755 mmHg 96%
    06:00 +16°C° 0 mm 2 m/s 755 mmHg 96%
    07:00 +18°C° 0,1 mm 3 m/s 755 mmHg 94%
    08:00 +19°C° 0,1 mm 3 m/s 755 mmHg 91%
    09:00 +20°C° 0,1 mm 4 m/s 755 mmHg 89%
    10:00 +20°C° 0,1 mm 4 m/s 755 mmHg 88%
    11:00 +21°C° 0,1 mm 5 m/s 755 mmHg 88%
    12:00 +21°C° 0,1 mm 5 m/s 755 mmHg 87%
    13:00 +21°C° 0 mm 5 m/s 755 mmHg 86%
    14:00 +21°C° 0 mm 5 m/s 755 mmHg 86%
    15:00 +21°C° 0 mm 5 m/s 755 mmHg 85%
    16:00 +21°C° 0 mm 5 m/s 755 mmHg 86%
    17:00 +21°C° 0 mm 5 m/s 755 mmHg 87%
    18:00 +20°C° 0 mm 5 m/s 755 mmHg 88%
    19:00 +20°C° 0 mm 4 m/s 755 mmHg 91%
    20:00 +19°C° 0 mm 4 m/s 755 mmHg 93%
    21:00 +18°C° 0 mm 4 m/s 755 mmHg 96%
    22:00 +18°C° 0 mm 4 m/s 755 mmHg 96%
    23:00 +18°C° 0 mm 4 m/s 755 mmHg 96%

    21 August, Marţi

    Timp Temperatura Precipitaţii Vânt Presiune Umiditate
    00:00 +18°C° 0 mm 4 m/s 755 mmHg 96%
    01:00 +18°C° 0 mm 4 m/s 755 mmHg 96%
    02:00 +18°C° 0 mm 4 m/s 755 mmHg 96%
    03:00 +18°C° 0 mm 4 m/s 755 mmHg 96%
    04:00 +18°C° 0 mm 3 m/s 755 mmHg 96%
    05:00 +18°C° 0 mm 3 m/s 755 mmHg 96%
    06:00 +18°C° 0 mm 3 m/s 755 mmHg 96%
    07:00 +19°C° 0 mm 3 m/s 755 mmHg 93%
    08:00 +19°C° 0 mm 3 m/s 755 mmHg 91%
    09:00 +20°C° 0 mm 3 m/s 755 mmHg 88%
    10:00 +20°C° 0,1 mm 4 m/s 755 mmHg 85%
    11:00 +21°C° 0,1 mm 4 m/s 755 mmHg 82%
    12:00 +21°C° 0,1 mm 4 m/s 755 mmHg 79%
    13:00 +21°C° 0 mm 4 m/s 755 mmHg 78%
    14:00 +22°C° 0 mm 5 m/s 755 mmHg 77%
    15:00 +22°C° 0 mm 5 m/s 755 mmHg 76%
    16:00 +21°C° 0 mm 5 m/s 755 mmHg 79%
    17:00 +21°C° 0 mm 4 m/s 755 mmHg 81%
    18:00 +20°C° 0 mm 4 m/s 754 mmHg 83%
    19:00 +19°C° 0 mm 3 m/s 755 mmHg 87%
    20:00 +18°C° 0 mm 3 m/s 755 mmHg 92%
    21:00 +17°C° 0 mm 3 m/s 755 mmHg 96%
    22:00 +17°C° 0 mm 3 m/s 755 mmHg 96%
    23:00 +17°C° 0 mm 3 m/s 755 mmHg 96%

    22 August, Miercuri

    Timp Temperatura Precipitaţii Vânt Presiune Umiditate
    00:00 +17°C° 0 mm 3 m/s 755 mmHg 96%
    01:00 +17°C° 0 mm 3 m/s 755 mmHg 96%
    02:00 +17°C° 0 mm 2 m/s 755 mmHg 97%
    03:00 +17°C° 0 mm 2 m/s 755 mmHg 97%
    04:00 +17°C° 0,1 mm 2 m/s 755 mmHg 97%
    05:00 +18°C° 0,1 mm 2 m/s 755 mmHg 97%
    06:00 +18°C° 0,1 mm 2 m/s 755 mmHg 97%
    07:00 +18°C° 0,1 mm 2 m/s 755 mmHg 94%
    08:00 +19°C° 0,1 mm 2 m/s 755 mmHg 91%
    09:00 +20°C° 0,1 mm 3 m/s 756 mmHg 88%
    10:00 +20°C° 0,1 mm 3 m/s 756 mmHg 84%
    11:00 +21°C° 0,1 mm 3 m/s 756 mmHg 80%
    12:00 +22°C° 0,1 mm 3 m/s 756 mmHg 75%
    13:00 +22°C° 0,1 mm 3 m/s 756 mmHg 74%
    14:00 +22°C° 0,1 mm 3 m/s 755 mmHg 73%
    15:00 +22°C° 0,1 mm 3 m/s 755 mmHg 72%
    16:00 +21°C° 0 mm 3 m/s 755 mmHg 75%
    17:00 +21°C° 0 mm 3 m/s 755 mmHg 77%
    18:00 +20°C° 0 mm 3 m/s 755 mmHg 79%
    19:00 +19°C° 0 mm 3 m/s 755 mmHg 83%
    20:00 +17°C° 0 mm 2 m/s 755 mmHg 87%
    21:00 +16°C° 0 mm 2 m/s 755 mmHg 91%
    22:00 +16°C° 0 mm 2 m/s 755 mmHg 90%
    23:00 +15°C° 0 mm 2 m/s 755 mmHg 90%

    23 August, Joi

    Timp Temperatura Precipitaţii Vânt Presiune Umiditate
    00:00 +15°C° 0 mm 1 m/s 755 mmHg 89%
    01:00 +15°C° 0 mm 1 m/s 754 mmHg 89%
    02:00 +15°C° 0 mm 1 m/s 754 mmHg 89%
    03:00 +15°C° 0 mm 1 m/s 753 mmHg 88%
    04:00 +15°C° 0 mm 1 m/s 753 mmHg 88%
    05:00 +15°C° 0 mm 1 m/s 753 mmHg 87%
    06:00 +15°C° 0 mm 2 m/s 752 mmHg 87%
    07:00 +16°C° 0 mm 3 m/s 752 mmHg 84%
    08:00 +17°C° 0 mm 3 m/s 752 mmHg 82%
    09:00 +18°C° 0 mm 4 m/s 752 mmHg 79%
    10:00 +19°C° 0,1 mm 5 m/s 751 mmHg 79%
    11:00 +20°C° 0,1 mm 6 m/s 751 mmHg 79%
    12:00 +21°C° 0,1 mm 6 m/s 750 mmHg 80%
    13:00 +20°C° 0,4 mm 6 m/s 750 mmHg 83%
    14:00 +20°C° 0,4 mm 6 m/s 750 mmHg 87%
    15:00 +19°C° 0,4 mm 6 m/s 749 mmHg 91%
    16:00 +19°C° 0,9 mm 6 m/s 749 mmHg 92%
    17:00 +17°C° 0,9 mm 6 m/s 749 mmHg 93%
    18:00 +17°C° 0,9 mm 5 m/s 748 mmHg 94%
    19:00 +16°C° 0,1 mm 5 m/s 749 mmHg 94%
    20:00 +15°C° 0,1 mm 4 m/s 749 mmHg 93%
    21:00 +14°C° 0,1 mm 4 m/s 749 mmHg 93%
    22:00 +13°C° 0 mm 4 m/s 749 mmHg 93%
    23:00 +13°C° 0 mm 5 m/s 749 mmHg 92%
    Arată mai mult